Skip Page Navigation
NASA JPL Caltech
NASA Logo - Jet Propulsion Laboratory + View the NASA Portal
+ Center for Near-Earth Object Studies
JPL Home Earth Solar System Stars & Galaxies Technology
JPL Solar System Dynamics
BODIES ORBITS EPHEMERIDES TOOLS PHYSICAL DATA DISCOVERY FAQ SITE MAP
JPL Small-Body Database Browser
Search: [ help ]  
202819 Carlosanchez (2008 SY81)
Classification: Main-belt Asteroid          SPK-ID: 2202819
Ephemeris | Orbit Diagram | Orbital Elements | Mission Design | Physical Parameters | Discovery Circumstances ]

[ hide orbit diagram ]

For accurate long-term ephemerides, please instead use our Horizons system.This orbit viewer was implemented using two-body methods, and hence should not be used for determining accurate long-term trajectories (over several years or decades) or planetary encounter circumstances.


Orbital Elements at Epoch 2459200.5 (2020-Dec-17.0) TDB
Reference: JPL 14 (heliocentric ecliptic J2000)
 Element Value Uncertainty (1-sigma)   Units 
e .03952555766695173 6.9305e-08  
a 2.686101480422679 2.4688e-08 au
q 2.579931821458948 1.9271e-07 au
i 6.067856587872239 7.4323e-06 deg
node 185.3211789432416 5.0924e-05 deg
peri 185.5121066090993 8.9142e-05 deg
M 265.9755018928161 7.5977e-05 deg
tp 2459620.472229987783
(2022-Feb-09.97222999)
0.0003413 TDB
period 1607.985214909116
4.40
2.2169e-05
6.07e-08
d
yr
n .2238826555506279 3.0866e-09 deg/d
Q 2.79227113938641 2.5664e-08 au
  Orbit Determination Parameters
   # obs. used (total)      195  
   data-arc span      6670 days (18.26 yr)  
   first obs. used      2002-03-18  
   last obs. used      2020-06-21  
   planetary ephem.      DE441  
   SB-pert. ephem.      SB441-N16  
   condition code      0  
   norm. resid. RMS      .54462  
   source      ORB  
   producer      Otto Matic  
   solution date      2021-Apr-13 22:58:58  

Additional Information
 Earth MOID = 1.57721 au 
 Jupiter MOID = 2.37364 au 
 T_jup = 3.365 
[ show covariance matrix ]

Ephemeris | Orbit Diagram | Orbital Elements | Mission Design | Physical Parameters | Discovery Circumstances ]

Physical Parameter Table
Parameter Symbol Value Units Sigma Reference Notes
absolute magnitude H 16.86   n/a E2021B55  

202819 Carlosanchez           Discovered 2008 Sept. 26 by J. Lacruz at La Cañada.
Spanish astrophysicist Carlos Sánchez Magro (1944-1985) was a distinguished member of the Instituto Astronómico de Canarias. A pioneer in infrared astronomy, he was a skilled developer of new astronomical instrumentation, including the infrared telescope at Teide Observatory and spaceborne instruments.
NOTE: some special characters may not display properly (any characters within {} are an attempt to place the proper accent above a character)
Reference: 20090806/MPCPages.arcLast Updated: 2011-05-09

Alternate Designations
 2008 SY81 = 2007 LS8 
Ephemeris | Orbit Diagram | Orbital Elements | Mission Design | Physical Parameters | Discovery Circumstances ]
ABOUT SSD CREDITS/AWARDS PRIVACY/COPYRIGHT GLOSSARY LINKS
FirstGov 2021-Jun-20 11:13 UT
(server date/time)  
NASA Home Page
Site Manager:   Ryan S. Park
Webmaster  Alan B. Chamberlin